{"data":{"norad_id":62885,"epoch":"2026-09-20T21:47:24.999072Z","epoch_age_seconds":132890,"freshness":"FRESH","line1":"1 62885U 25024G   26263.90792823  .00135291  00000+0  10374-2 0  9998","line2":"2 62885  42.9998  84.3616 0001060 281.7291  78.3458 15.70918326 94175","mean_motion":15.70918326,"eccentricity":0.000106,"inclination_deg":42.9998,"raan_deg":84.3616,"arg_perigee_deg":281.7291,"mean_anomaly_deg":78.3458,"bstar":0.0010374,"rev_number":9417,"period_min":91.666127778052,"perigee_km":355.55735323422,"apogee_km":356.98504777272,"semimajor_km":6734.4082005035,"source":"CELESTRAK","updated_at":"2026-09-22T09:00:49.702959Z"}}